Overview Statistics Trail Chart Weather Telemetry Raw packets
 

This is the latest recevied weather packets stored in our database for station/object W5ALL-WX. If no packets are shown the sender has not sent any weather packets the latest 10 day(s).

<< 99 100 101 102 103 104 105 >>
Time Temp. Humidity Pressure Rain* Wind** Luminosity Snow
1777241097 27.78° C 9% 1005.7 hPa 0 mm - - -
1777240797 27.78° C 9% 1005.6 hPa 0 mm - - -
1777240497 28.33° C 7% 1005.5 hPa 0 mm - - -
1777240197 28.89° C 8% 1005.7 hPa 0 mm - - -
1777239897 28.33° C 8% 1005.5 hPa 0 mm - - -
1777239597 28.33° C 8% 1005.6 hPa 0 mm - - -
1777239297 28.33° C 9% 1005.9 hPa 0 mm - - -
1777238997 28.33° C 9% 1005.8 hPa 0 mm - - -
1777238697 28.33° C 9% 1005.8 hPa 0 mm - - -
1777238397 27.78° C 10% 1006.2 hPa 0 mm - - -
1777238097 27.78° C 10% 1006.2 hPa 0 mm - - -
1777237797 27.78° C 9% 1006.2 hPa 0 mm - - -
1777237497 27.78° C 10% 1006.4 hPa 0 mm - - -
1777237197 28.33° C 10% 1006.5 hPa 0 mm - - -
1777236897 28.33° C 10% 1006.4 hPa 0 mm - - -
1777236597 28.33° C 9% 1006.6 hPa 0 mm - - -
1777236300 28.33° C 10% 1006.6 hPa 0 mm - - -
1777235997 28.33° C 10% 1006.6 hPa 0 mm - - -
1777235697 28.33° C 10% 1006.9 hPa 0 mm - - -
1777235397 28.33° C 10% 1007 hPa 0 mm - - -
1777235097 28.33° C 11% 1006.9 hPa 0 mm - - -
1777234797 27.22° C 11% 1007 hPa 0 mm - - -
1777234497 27.22° C 11% 1007.2 hPa 0 mm - - -
1777234197 27.22° C 11% 1007.3 hPa 0 mm - - -
1777233897 27.22° C 12% 1007.5 hPa 0 mm - - -

* Rain latest hour (hover to see other rain measurements)
** Current wind speed in m/s (hover to see current wind gust speed)